Regional Weather Roundup
Issued by NWS

Home | Current Version | Previous Version | Graphics & Text | Print | Product List | Glossary On
Versions: 1 2 3 4 5 6 7 8 9 10 11 12 13 14 15 16 17 18 19 20 21 22 23 24 25 26 27 28 29 30 31 32 33 34 35 36 37 38 39 40 41 42 43 44 45 46 47 48 49 50
000
ASUS45 KBOU 020107
RWRCO

WEATHER ROUNDUP FOR COLORADO
NATIONAL WEATHER SERVICE DENVER/BOULDER CO
700 PM MDT WED OCT 01 2014

NOTE: "FAIR" INDICATES FEW OR NO CLOUDS BELOW 12000 FEET WITH NO
SIGNIFICANT WEATHER AND/OR OBSTRUCTIONS TO VISIBILITY.

COZ001>005-013-030-031-020200-
...NORTHWEST COLORADO...

CITY           SKY/WX    TMP DP  RH WIND       PRES   REMARKS
CRAIG          MOCLDY    39  35  86 S7        30.09R
HAYDEN         CLOUDY    37  34  87 SW5       30.08S
MEEKER         MOCLDY    40  35  83 CALM      30.10R
MOUNT WERNER   NOT AVBL
STEAMBOAT SPGS CLOUDY    35  33  94 CALM      30.08S
WALDEN         CLOUDY    34  32  93 N16       30.06R WCI  23
$$

COZ006>008-011-020200-
...WEST CENTRAL VALLEYS...

CITY           SKY/WX    TMP DP  RH WIND       PRES   REMARKS
GRAND JUNCTION CLOUDY    49  44  83 S6        30.05R
MONTROSE       PTCLDY    46  42  86 SE8       30.08R
EAGLE          LGT RAIN  45  39  81 SW5       30.07R FOG
RIFLE          LGT RAIN  44  40  85 SE10      30.09R
DELTA          RAIN      51  47  87 CALM      30.06R
NUCLA          CLOUDY    50  43  76 S3        30.09R
$$

COZ017>023-064>068-020200-
...SOUTHWEST COLORADO...

CITY           SKY/WX    TMP DP  RH WIND       PRES   REMARKS
DURANGO        CLEAR     54  34  46 W9        30.01R
CORTEZ         CLEAR     55  38  52 N10       30.02R
PAGOSA SPRINGS CLEAR     49  41  74 CALM      30.05S
TELLURIDE      PTCLDY   N/A N/A N/A SW6       30.14R
WOLF CREEK PAS FOG       30  30 100 SW20G25   30.19S VSB<1/4 WCI  18
$$

COZ009-010-012-014-032>034-037-058>063-020200-
...CENTRAL COLORADO...

CITY           SKY/WX    TMP DP  RH WIND       PRES   REMARKS
ASPEN          MOCLDY    41  36  82 W3        30.05R
BUENA VISTA    MOCLDY    46  32  58 W16       30.00R
COPPER MTN     SNOW      34  30  86 W10       30.15R VSB<1/4 WCI  26
BERTHOUD PASS  FOG       25  21  86 W6        30.16S VSB 1/4 WCI  18
COTTONWOOD PAS CLOUDY    43  28  56 N7        30.08R
GUNNISON       CLOUDY    43  34  70 S9        30.09R
KREMMLING      LGT RAIN  41  32  70 NW9G16    30.07R
LEADVILLE      CLOUDY    35  29  78 N7        30.07R WCI  29
SALIDA         PTCLDY    51  28  40 W15G26    30.08R
SUNLIGHT       HVY SNOW  30  30 100 W9G16     30.15R VSB<1/4 WCI  22
WILKERSON PASS NOT AVBL
$$

COZ069>075-020200-
...SAN LUIS VALLEY/SANGRE DE CRISTO MOUNTAINS...

CITY           SKY/WX    TMP DP  RH WIND       PRES   REMARKS
ALAMOSA        MOCLDY    46  37  71 E7        30.02S
LA VETA PASS   NOT AVBL
SAGUACHE       MOCLDY    45  39  81 SE6       30.04R
$$

COZ035-036-038>040-020200-
...NORTHERN COLORADO FRONT RANGE...

CITY           SKY/WX    TMP DP  RH WIND       PRES   REMARKS
DENVER INTL AP MOCLDY    44  41  89 N12       29.98R
DMNS CITY PARK   N/A     47  39  75 N1G13     30.00R
AURORA         MOCLDY    44  44  98 N7        30.00R
FRONT RANGE AP NOT AVBL
ERIE MUNI ARPT CLOUDY    46  39  78 N6        30.00R
BOULDER MUN AP CLOUDY    46  39  76 NE7       30.00R
CENTENNIAL     LGT RAIN  45  41  86 N7        30.00R
BROOMFIELD     MOCLDY    46  39  76 N9        30.01R
FORT COLLINS   MOCLDY    46  37  71 NE12      29.99R
LONGMONT       MOCLDY    47  40  74 E3        30.02R
$$

COZ041-046-047-076>085-087-088-020200-
...PIKES PEAK/PALMER DIVIDE AND SOUTHERN FOOTHILLS...

CITY           SKY/WX    TMP DP  RH WIND       PRES   REMARKS
COLO. SPRINGS  CLOUDY    55  41  59 NE25      29.93R
A. F. ACADEMY  CLOUDY    46  41  81 N18       29.97R
ELLICOTT       NOT AVBL
FALCON         LGT RAIN  44  42  94 N21G28    29.97R
FORT CARSON    CLOUDY    59  37  44 E3        29.89S
LIMON          LGT RAIN  44  42  93 N29G36    29.95R
MONUMENT HILL  SNOW      39  37  93 NE10G16   30.01R VSB 1/4
TRINIDAD       CLOUDY    67  32  27 W7        29.87R
$$

COZ042>045-048>051-090-091-020200-
...NORTHEAST COLORADO...

CITY           SKY/WX    TMP DP  RH WIND       PRES   REMARKS
GREELEY ARPT   MOCLDY    45  36  70 N15G21    29.98R
AKRON          LGT RAIN  45  44  97 NW24G32   29.96F
BURLINGTON     PTCLDY    62  43  49 E3        29.83R
WRAY           LGT RAIN  57  46  67 W36G45    29.88R
STERLING       RAIN      50  46  87 NW17G26   29.98R
HOLYOKE        TSTM      54  46  76 NW23G38   29.89R
FORT MORGAN    LGT RAIN  44  42  91 N20G26    29.97F
$$

COZ086-089-092>099-020200-
...SOUTHEAST COLORADO...

CITY           SKY/WX    TMP DP  RH WIND       PRES   REMARKS
PUEBLO         CLOUDY    64  39  39 N3        29.84R
LA JUNTA       MOCLDY    67  37  33 E9        29.76F
LAMAR          MOCLDY    67  47  48 E8        29.74S
SPRINGFIELD      N/A     64  34  32 S9        29.80R
$$


USA.gov is the U.S. government's official web portal to all federal, state and local government web resources and services.